Вернуться в каталог

STARLINK-11418

АктивенСвязьVLEO
NORAD 63058·PAYLOAD·🇺🇸 United States

Запущен Feb 21, 2025 с Cape Canaveral Space Force Station

Loading…

Ближайшие Пролёты (ближайшие 24 часа)

TLE

СвежийSource: CelesTrak SupGP

Эпоха: Sep 15, 2026, 02:11 UTC

1 63058C 25035G   26258.09145833  .00056426  00000+0  43837-3 0  2581
2 63058  43.0001 314.0693 0001652 247.2039 147.8064 15.70804346    18

Отслеживайте STARLINK-11418 в реальном времени с AllMySat

Download on the App Store